UAL1833 KEWR-KPSP

Flight info

Callsign UAL1833
Flight time N/A
Altitude 34000
Route NEWEL J60 DJB CPONE JOT J60 IOW LBF DBL CHESZ Q88 HAKMN ZELMA RDBUL1
Aircraft A320/M-VGDW/C

Departure

Time 2026-04-26 18:54
Airport Newark Liberty International Airport (KEWR)

Arrival

Time N/A
Airport Palm Springs International Airport (KPSP)
Time Latitude Longitude Altitude Speed Heading
2026-04-26 18:33 40.68303 -74.18411 22 ft 0 kts
2026-04-26 18:48 40.68292 -74.18412 24 ft 4 kts
2026-04-26 18:48 40.68265 -74.18415 22 ft 4 kts
2026-04-26 18:49 40.68246 -74.18422 22 ft 4 kts 88°
2026-04-26 18:49 40.68247 -74.18450 22 ft 4 kts 95°
2026-04-26 18:49 40.68248 -74.18467 22 ft 0 kts 95°
2026-04-26 18:51 40.68248 -74.18461 22 ft 1 kts 95°
2026-04-26 18:51 40.68247 -74.18444 22 ft 2 kts 95°
2026-04-26 18:51 40.68245 -74.18417 22 ft 4 kts 95°
2026-04-26 18:51 40.68241 -74.18363 24 ft 9 kts 95°
2026-04-26 18:52 40.68234 -74.18252 22 ft 15 kts 95°
2026-04-26 18:52 40.68237 -74.18097 22 ft 18 kts 93°
2026-04-26 18:52 40.68212 -74.17934 22 ft 19 kts 114°
2026-04-26 18:52 40.68155 -74.17781 22 ft 14 kts 122°
2026-04-26 18:53 40.68069 -74.17770 22 ft 14 kts 188°
2026-04-26 18:53 40.68011 -74.17709 21 ft 11 kts 116°
2026-04-26 18:53 40.68040 -74.17626 22 ft 13 kts 25°
2026-04-26 18:53 40.68256 -74.17489 24 ft 68 kts 26°
2026-04-26 18:54 40.68876 -74.17095 23 ft 127 kts 26°
2026-04-26 18:54 40.69823 -74.16495 40 ft 170 kts 26°
2026-04-26 18:54 40.70844 -74.15835 763 ft 156 kts 28°
2026-04-26 18:54 40.71894 -74.15474 1346 ft 161 kts 355°
2026-04-26 18:55 40.72922 -74.16054 1806 ft 168 kts 317°
2026-04-26 18:55 40.73483 -74.17462 1996 ft 185 kts 285°
2026-04-26 18:55 40.73807 -74.19231 2036 ft 212 kts 286°
2026-04-26 18:55 40.74186 -74.21257 2075 ft 241 kts 285°
2026-04-26 18:56 40.74611 -74.23497 2377 ft 261 kts 286°
2026-04-26 18:56 40.75056 -74.25845 2995 ft 267 kts 287°
2026-04-26 18:56 40.75511 -74.28232 3719 ft 270 kts 287°
2026-04-26 18:56 40.75974 -74.30656 4439 ft 273 kts 287°
2026-04-26 18:57 40.76440 -74.33100 5191 ft 276 kts 287°
2026-04-26 18:57 40.76599 -74.33930 5414 ft 277 kts 287°
2026-04-26 18:57 40.77387 -74.38051 6610 ft 281 kts 287°
2026-04-26 18:57 40.77867 -74.40555 7297 ft 283 kts 287°
2026-04-26 18:58 40.78350 -74.43083 7954 ft 286 kts 286°
2026-04-26 18:58 40.78834 -74.45641 8604 ft 289 kts 286°
2026-04-26 18:58 40.79314 -74.48190 9218 ft 290 kts 286°
2026-04-26 18:58 40.79805 -74.50797 9832 ft 291 kts 286°
2026-04-26 18:59 40.80309 -74.53420 10251 ft 302 kts 286°
2026-04-26 18:59 40.80841 -74.56200 10386 ft 323 kts 287°
2026-04-26 18:59 40.81403 -74.59146 10580 ft 338 kts 286°
2026-04-26 18:59 40.81977 -74.62198 11069 ft 345 kts 286°
2026-04-26 19:00 40.82556 -74.65279 11681 ft 347 kts 286°
2026-04-26 19:00 40.82799 -74.66575 11948 ft 347 kts 286°
2026-04-26 19:00 40.83200 -74.68713 12377 ft 347 kts 286°
2026-04-26 19:00 40.83782 -74.71814 12989 ft 348 kts 286°
2026-04-26 19:01 40.84363 -74.74911 13580 ft 348 kts 286°
2026-04-26 19:01 40.84949 -74.78024 14119 ft 350 kts 286°
2026-04-26 19:01 40.85537 -74.81156 14667 ft 352 kts 286°
2026-04-26 19:01 40.86127 -74.84304 15197 ft 354 kts 287°
2026-04-26 19:02 40.86716 -74.87462 15707 ft 355 kts 287°
2026-04-26 19:02 40.87308 -74.90632 16238 ft 355 kts 287°
2026-04-26 19:02 40.87902 -74.93806 16751 ft 357 kts 287°
2026-04-26 19:02 40.88102 -74.94881 16916 ft 357 kts 287°
2026-04-26 19:03 40.89087 -75.00196 17757 ft 359 kts 287°
2026-04-26 19:03 40.89678 -75.03406 18278 ft 360 kts 287°
2026-04-26 19:03 40.90071 -75.05545 18603 ft 361 kts 287°
2026-04-26 19:03 40.90666 -75.08774 19062 ft 363 kts 287°
2026-04-26 19:04 40.91266 -75.12033 19539 ft 365 kts 287°
2026-04-26 19:04 40.91683 -75.15370 19994 ft 372 kts 277°
2026-04-26 19:04 40.91596 -75.18810 20431 ft 379 kts 266°
2026-04-26 19:04 40.90992 -75.22250 20860 ft 388 kts 258°
2026-04-26 19:05 40.89380 -75.29086 21669 ft 392 kts 258°
2026-04-26 19:05 40.88569 -75.32532 22056 ft 394 kts 258°
2026-04-26 19:05 40.87752 -75.36000 22426 ft 396 kts 258°
2026-04-26 19:06 40.86931 -75.39490 22794 ft 398 kts 258°
2026-04-26 19:06 40.86106 -75.42993 23149 ft 400 kts 258°
2026-04-26 19:06 40.85281 -75.46489 23494 ft 402 kts 258°
2026-04-26 19:06 40.84445 -75.50042 23826 ft 404 kts 258°
2026-04-26 19:07 40.83604 -75.53595 24140 ft 406 kts 258°
2026-04-26 19:07 40.82755 -75.57167 24450 ft 408 kts 258°
2026-04-26 19:07 40.81903 -75.60749 24777 ft 409 kts 258°
2026-04-26 19:07 40.81048 -75.64335 25087 ft 411 kts 257°
2026-04-26 19:08 40.80190 -75.67936 25386 ft 412 kts 257°
2026-04-26 19:08 40.79328 -75.71549 25682 ft 413 kts 257°
2026-04-26 19:08 40.78463 -75.75170 25968 ft 415 kts 257°
2026-04-26 19:08 40.77593 -75.78805 26263 ft 416 kts 257°
2026-04-26 19:09 40.76717 -75.82454 26558 ft 417 kts 257°
2026-04-26 19:09 40.75835 -75.86108 26865 ft 418 kts 257°
2026-04-26 19:09 40.74952 -75.89770 27142 ft 420 kts 257°
2026-04-26 19:09 40.74069 -75.93439 27408 ft 421 kts 257°
2026-04-26 19:10 40.73179 -75.97124 27676 ft 422 kts 257°
2026-04-26 19:10 40.72284 -76.00821 27952 ft 423 kts 257°
2026-04-26 19:10 40.71386 -76.04524 28254 ft 424 kts 257°
2026-04-26 19:10 40.70492 -76.08214 28604 ft 423 kts 257°
2026-04-26 19:11 40.69595 -76.11904 28965 ft 421 kts 257°
2026-04-26 19:11 40.68702 -76.15572 29305 ft 420 kts 257°
2026-04-26 19:11 40.67829 -76.19227 29641 ft 417 kts 259°
2026-04-26 19:11 40.67289 -76.22949 29994 ft 410 kts 268°
2026-04-26 19:12 40.67212 -76.26676 30339 ft 404 kts 277°
2026-04-26 19:12 40.67572 -76.30274 30663 ft 400 kts 284°
2026-04-26 19:12 40.68130 -76.33912 30972 ft 400 kts 284°
2026-04-26 19:12 40.68673 -76.37495 31280 ft 399 kts 283°
2026-04-26 19:13 40.69204 -76.41036 31584 ft 398 kts 283°
2026-04-26 19:13 40.69736 -76.44616 31877 ft 398 kts 283°
2026-04-26 19:13 40.70268 -76.48191 32176 ft 397 kts 283°
2026-04-26 19:13 40.70797 -76.51763 32493 ft 396 kts 283°
2026-04-26 19:14 40.71323 -76.55325 32777 ft 396 kts 283°
2026-04-26 19:14 40.71846 -76.58885 33052 ft 395 kts 283°
2026-04-26 19:14 40.72367 -76.62440 33300 ft 395 kts 282°
2026-04-26 19:14 40.72718 -76.64838 33473 ft 394 kts 283°
2026-04-26 19:15 40.73406 -76.69545 33793 ft 394 kts 282°
2026-04-26 19:15 40.73924 -76.73089 34027 ft 393 kts 282°
2026-04-26 19:15 40.74438 -76.76629 34164 ft 394 kts 282°
2026-04-26 19:16 40.75481 -76.83814 34200 ft 403 kts 282°
2026-04-26 19:16 40.76540 -76.91095 34215 ft 405 kts 282°
2026-04-26 19:17 40.77599 -76.98402 34216 ft 406 kts 282°
2026-04-26 19:17 40.78647 -77.05722 34216 ft 406 kts 282°
2026-04-26 19:18 40.79693 -77.13051 34219 ft 406 kts 282°
2026-04-26 19:18 40.80736 -77.20387 34209 ft 407 kts 282°
2026-04-26 19:19 40.81768 -77.27730 34221 ft 407 kts 282°
2026-04-26 19:19 40.82803 -77.35080 34221 ft 407 kts 282°
2026-04-26 19:20 40.83830 -77.42436 34205 ft 407 kts 282°
2026-04-26 19:20 40.84857 -77.49792 34203 ft 407 kts 282°
2026-04-26 19:21 40.85883 -77.57148 34200 ft 407 kts 282°
2026-04-26 19:21 40.86899 -77.64523 34201 ft 408 kts 282°
2026-04-26 19:22 40.87912 -77.71907 34203 ft 409 kts 282°
2026-04-26 19:22 40.88922 -77.79294 34205 ft 408 kts 282°
2026-04-26 19:23 40.89924 -77.86679 34208 ft 409 kts 282°
2026-04-26 19:23 40.90925 -77.94080 34208 ft 409 kts 282°
2026-04-26 19:24 40.91922 -78.01481 34214 ft 409 kts 282°
2026-04-26 19:24 40.93304 -78.12618 34206 ft 410 kts 281°
2026-04-26 19:25 40.94045 -78.18810 34213 ft 410 kts 281°
2026-04-26 19:25 40.95103 -78.27515 34221 ft 410 kts 281°
2026-04-26 19:26 40.96011 -78.34957 34215 ft 410 kts 281°
2026-04-26 19:26 40.96923 -78.42411 34221 ft 410 kts 282°
2026-04-26 19:27 40.97823 -78.49816 34218 ft 410 kts 281°
2026-04-26 19:27 40.98709 -78.57261 34228 ft 410 kts 281°
2026-04-26 19:28 40.99600 -78.64759 34230 ft 409 kts 282°
2026-04-26 19:28 41.00481 -78.72153 34217 ft 409 kts 281°
2026-04-26 19:29 41.01365 -78.79600 34218 ft 409 kts 281°
2026-04-26 19:29 41.02238 -78.87051 34227 ft 410 kts 281°
2026-04-26 19:30 41.03106 -78.94513 34213 ft 410 kts 281°
2026-04-26 19:30 41.03833 -79.00771 34204 ft 410 kts 281°
2026-04-26 19:31 41.04833 -79.09446 34212 ft 410 kts 281°
2026-04-26 19:31 41.05692 -79.16923 34205 ft 410 kts 281°
2026-04-26 19:32 41.06545 -79.24392 34203 ft 410 kts 281°
2026-04-26 19:32 41.07392 -79.31858 34207 ft 410 kts 281°
2026-04-26 19:33 41.08222 -79.39332 34200 ft 410 kts 281°
2026-04-26 19:33 41.09051 -79.46814 34201 ft 410 kts 281°
2026-04-26 19:34 41.09887 -79.54289 34200 ft 410 kts 281°
2026-04-26 19:34 41.10713 -79.61762 34198 ft 410 kts 281°
2026-04-26 19:35 41.11533 -79.69239 34199 ft 410 kts 281°
2026-04-26 19:35 41.12353 -79.76732 34199 ft 410 kts 281°
2026-04-26 19:36 41.12897 -79.81732 34207 ft 410 kts 281°
2026-04-26 19:36 41.13974 -79.91703 34214 ft 410 kts 280°
2026-04-26 19:37 41.14770 -79.99206 34205 ft 411 kts 280°
2026-04-26 19:37 41.15568 -80.06708 34204 ft 411 kts 280°
2026-04-26 19:38 41.16366 -80.14211 34206 ft 411 kts 280°
2026-04-26 19:38 41.17162 -80.21781 34193 ft 419 kts 280°
2026-04-26 19:39 41.17969 -80.29527 34193 ft 428 kts 280°
2026-04-26 19:39 41.18779 -80.37389 34192 ft 431 kts 279°
2026-04-26 19:40 41.19586 -80.45275 34192 ft 431 kts 279°
2026-04-26 19:40 41.20395 -80.53169 34192 ft 431 kts 280°
2026-04-26 19:41 41.21204 -80.61066 34195 ft 432 kts 279°
2026-04-26 19:41 41.21737 -80.66357 34197 ft 432 kts 279°
2026-04-26 19:42 41.22792 -80.76902 34194 ft 433 kts 279°
2026-04-26 19:42 41.23572 -80.84830 34200 ft 433 kts 279°
2026-04-26 19:43 41.24353 -80.92764 34201 ft 433 kts 279°
2026-04-26 19:43 41.25139 -81.00708 34206 ft 434 kts 279°
2026-04-26 19:44 41.25919 -81.08667 34220 ft 434 kts 279°
2026-04-26 19:44 41.26559 -81.15293 34211 ft 434 kts 279°
2026-04-26 19:45 41.27317 -81.23258 34207 ft 435 kts 279°
2026-04-26 19:45 41.28069 -81.31229 34204 ft 435 kts 279°
2026-04-26 19:46 41.28825 -81.39205 34208 ft 435 kts 279°
2026-04-26 19:46 41.29577 -81.47196 34220 ft 435 kts 279°
2026-04-26 19:47 41.30199 -81.53834 34221 ft 435 kts 279°
2026-04-26 19:47 41.31060 -81.63156 34210 ft 435 kts 279°
2026-04-26 19:48 41.31791 -81.71144 34209 ft 435 kts 279°
2026-04-26 19:48 41.32518 -81.79137 34216 ft 435 kts 278°
2026-04-26 19:49 41.33237 -81.87145 34204 ft 436 kts 278°
2026-04-26 19:49 41.33951 -81.95142 34201 ft 435 kts 278°
2026-04-26 19:50 41.34664 -82.03143 34214 ft 435 kts 278°
2026-04-26 19:50 41.35365 -82.11157 34206 ft 436 kts 278°
2026-04-26 19:51 41.36026 -82.19177 34213 ft 436 kts 277°
2026-04-26 19:51 41.36526 -82.27212 34217 ft 436 kts 276°
2026-04-26 19:52 41.36953 -82.35277 34221 ft 436 kts 276°
2026-04-26 19:52 41.37395 -82.43333 34222 ft 436 kts 276°
2026-04-26 19:53 41.37861 -82.51393 34219 ft 436 kts 276°
2026-04-26 19:53 41.38322 -82.59453 34215 ft 436 kts 276°
2026-04-26 19:54 41.38772 -82.67503 34214 ft 437 kts 276°
2026-04-26 19:54 41.39223 -82.75573 34216 ft 437 kts 276°
2026-04-26 19:55 41.39666 -82.83651 34218 ft 437 kts 276°
2026-04-26 19:55 41.40101 -82.91726 34219 ft 438 kts 276°
2026-04-26 19:56 41.40526 -82.99770 34221 ft 437 kts 276°
2026-04-26 19:56 41.40948 -83.07844 34219 ft 437 kts 276°
2026-04-26 19:57 41.41361 -83.15923 34219 ft 436 kts 276°
2026-04-26 19:57 41.41770 -83.23976 34217 ft 436 kts 276°
2026-04-26 19:58 41.42175 -83.32035 34217 ft 436 kts 276°
2026-04-26 19:58 41.42573 -83.40086 34213 ft 435 kts 276°
2026-04-26 19:59 41.42968 -83.48143 34215 ft 435 kts 276°
2026-04-26 19:59 41.43363 -83.56198 34221 ft 435 kts 276°
2026-04-26 20:00 41.43745 -83.64258 34221 ft 436 kts 276°
2026-04-26 20:00 41.44116 -83.72324 34220 ft 436 kts 276°
2026-04-26 20:01 41.44485 -83.80383 34220 ft 436 kts 276°
2026-04-26 20:01 41.44861 -83.88437 34224 ft 435 kts 276°
2026-04-26 20:02 41.45216 -83.96498 34218 ft 435 kts 276°
2026-04-26 20:02 41.45511 -84.03192 34219 ft 435 kts 276°
2026-04-26 20:03 41.45922 -84.12608 34232 ft 435 kts 276°
2026-04-26 20:03 41.46267 -84.20643 34218 ft 434 kts 276°
2026-04-26 20:04 41.46600 -84.28671 34212 ft 433 kts 276°
2026-04-26 20:04 41.46927 -84.36695 34212 ft 433 kts 276°
2026-04-26 20:05 41.47256 -84.44710 34207 ft 434 kts 276°
2026-04-26 20:05 41.47575 -84.52740 34210 ft 433 kts 276°
2026-04-26 20:06 41.47884 -84.60772 34201 ft 434 kts 276°
2026-04-26 20:06 41.48188 -84.68812 34197 ft 434 kts 276°
2026-04-26 20:07 41.48493 -84.76851 34195 ft 434 kts 276°
2026-04-26 20:07 41.48793 -84.84840 34192 ft 434 kts 276°
2026-04-26 20:08 41.49087 -84.92926 34188 ft 433 kts 275°
2026-04-26 20:08 41.49374 -85.00944 34187 ft 433 kts 275°
2026-04-26 20:09 41.49651 -85.08904 34187 ft 432 kts 275°
2026-04-26 20:09 41.49929 -85.16961 34182 ft 432 kts 275°
2026-04-26 20:10 41.50206 -85.24960 34180 ft 431 kts 275°
2026-04-26 20:10 41.50466 -85.32949 34181 ft 431 kts 275°
2026-04-26 20:11 41.50724 -85.40935 34180 ft 430 kts 275°
2026-04-26 20:12 41.51103 -85.52882 34175 ft 429 kts 275°
2026-04-26 20:12 41.51336 -85.60741 34173 ft 429 kts 275°
2026-04-26 20:13 41.51570 -85.68775 34171 ft 428 kts 275°
2026-04-26 20:13 41.51789 -85.76704 34169 ft 427 kts 275°
2026-04-26 20:14 41.52012 -85.84564 34168 ft 426 kts 275°
2026-04-26 20:14 41.52237 -85.92464 34165 ft 426 kts 275°
2026-04-26 20:15 41.52458 -86.00373 34166 ft 426 kts 275°
2026-04-26 20:15 41.52651 -86.08277 34165 ft 426 kts 274°
2026-04-26 20:16 41.52783 -86.16175 34165 ft 425 kts 274°
2026-04-26 20:16 41.52904 -86.24070 34164 ft 425 kts 274°
2026-04-26 20:17 41.53029 -86.31961 34164 ft 425 kts 274°
2026-04-26 20:17 41.53158 -86.39849 34161 ft 425 kts 274°
2026-04-26 20:18 41.53283 -86.47728 34164 ft 425 kts 274°
2026-04-26 20:18 41.53410 -86.55618 34160 ft 425 kts 274°
2026-04-26 20:19 41.53524 -86.63510 34156 ft 425 kts 274°
2026-04-26 20:19 41.53624 -86.71354 34155 ft 426 kts 273°
2026-04-26 20:20 41.53728 -86.79252 34153 ft 426 kts 273°
2026-04-26 20:20 41.53826 -86.87155 34154 ft 426 kts 273°
2026-04-26 20:21 41.53919 -86.95059 34153 ft 425 kts 273°
2026-04-26 20:21 41.54004 -87.02950 34151 ft 425 kts 273°
2026-04-26 20:22 41.54087 -87.10843 34150 ft 425 kts 273°
2026-04-26 20:22 41.54154 -87.18738 34142 ft 425 kts 272°
2026-04-26 20:23 41.54220 -87.26632 34141 ft 425 kts 272°
2026-04-26 20:23 41.54292 -87.34518 34135 ft 424 kts 272°
2026-04-26 20:24 41.54353 -87.42388 34132 ft 424 kts 272°
2026-04-26 20:24 41.54406 -87.50260 34131 ft 424 kts 272°
2026-04-26 20:25 41.54449 -87.58133 34129 ft 424 kts 272°
2026-04-26 20:25 41.54494 -87.65994 34128 ft 423 kts 272°
2026-04-26 20:26 41.54525 -87.72521 34127 ft 423 kts 272°
2026-04-26 20:26 41.54563 -87.81663 34126 ft 423 kts 272°
2026-04-26 20:27 41.54588 -87.88251 34126 ft 423 kts 271°
2026-04-26 20:27 41.54605 -87.96103 34122 ft 423 kts 271°
2026-04-26 20:28 41.54623 -88.03955 34122 ft 423 kts 271°
2026-04-26 20:28 41.54639 -88.11747 34122 ft 422 kts 271°
2026-04-26 20:29 41.54648 -88.19576 34117 ft 422 kts 271°
2026-04-26 20:29 41.54647 -88.27409 34111 ft 422 kts 271°
2026-04-26 20:30 41.54646 -88.35256 34105 ft 422 kts 271°
2026-04-26 20:30 41.54684 -88.43093 34102 ft 422 kts 271°
2026-04-26 20:31 41.54731 -88.50920 34098 ft 422 kts 271°
2026-04-26 20:31 41.54772 -88.58760 34090 ft 422 kts 271°
2026-04-26 20:32 41.54799 -88.66596 34090 ft 422 kts 271°
2026-04-26 20:32 41.54818 -88.74461 34089 ft 423 kts 271°
2026-04-26 20:33 41.54833 -88.82301 34085 ft 423 kts 271°
2026-04-26 20:33 41.54841 -88.90154 34080 ft 423 kts 271°
2026-04-26 20:34 41.54845 -88.98010 34072 ft 423 kts 271°
2026-04-26 20:34 41.54845 -89.05864 34070 ft 423 kts 271°
2026-04-26 20:35 41.54841 -89.13712 34065 ft 423 kts 271°
2026-04-26 20:35 41.54830 -89.21518 34059 ft 423 kts 271°
2026-04-26 20:36 41.54807 -89.29371 34055 ft 423 kts 271°
2026-04-26 20:36 41.54784 -89.37225 34051 ft 423 kts 271°
2026-04-26 20:37 41.54761 -89.45088 34049 ft 423 kts 271°
2026-04-26 20:37 41.54734 -89.52952 34050 ft 424 kts 270°
2026-04-26 20:38 41.54695 -89.60775 34053 ft 424 kts 270°
2026-04-26 20:38 41.54647 -89.68648 34055 ft 424 kts 270°
2026-04-26 20:39 41.54596 -89.76509 34052 ft 424 kts 270°
2026-04-26 20:39 41.54541 -89.84372 34052 ft 423 kts 270°
2026-04-26 20:40 41.54483 -89.92233 34049 ft 423 kts 270°
2026-04-26 20:40 41.54422 -90.00094 34044 ft 424 kts 270°
2026-04-26 20:41 41.54348 -90.07961 34043 ft 423 kts 270°
2026-04-26 20:41 41.54266 -90.15811 34040 ft 423 kts 270°
2026-04-26 20:42 41.54182 -90.23661 34034 ft 423 kts 270°
2026-04-26 20:42 41.54094 -90.31515 34023 ft 423 kts 270°
2026-04-26 20:43 41.54002 -90.39355 34020 ft 423 kts 270°
2026-04-26 20:43 41.53906 -90.47193 34018 ft 422 kts 270°
2026-04-26 20:44 41.53808 -90.55030 34017 ft 422 kts 269°
2026-04-26 20:44 41.53696 -90.62856 34019 ft 422 kts 269°
2026-04-26 20:45 41.53576 -90.70678 34016 ft 421 kts 269°
2026-04-26 20:45 41.53464 -90.78500 34022 ft 421 kts 269°
2026-04-26 20:46 41.53347 -90.86314 34019 ft 421 kts 269°
2026-04-26 20:46 41.53218 -90.94116 34016 ft 420 kts 269°
2026-04-26 20:47 41.53083 -91.01915 34010 ft 420 kts 269°
2026-04-26 20:47 41.52942 -91.09711 34006 ft 419 kts 269°
2026-04-26 20:48 41.52799 -91.17484 34004 ft 419 kts 269°
2026-04-26 20:48 41.52656 -91.25210 33996 ft 419 kts 269°
2026-04-26 20:49 41.52500 -91.33021 33992 ft 418 kts 269°
2026-04-26 20:49 41.52342 -91.40772 33993 ft 417 kts 269°
2026-04-26 20:50 41.52179 -91.48457 33991 ft 417 kts 269°
2026-04-26 20:50 41.52007 -91.56184 33989 ft 417 kts 268°
2026-04-26 20:51 41.51841 -91.63908 33991 ft 416 kts 269°
2026-04-26 20:51 41.51742 -91.71632 33990 ft 416 kts 269°
2026-04-26 20:52 41.51660 -91.79353 33985 ft 416 kts 269°
2026-04-26 20:52 41.51569 -91.87063 33982 ft 415 kts 269°
2026-04-26 20:53 41.51456 -91.94769 33981 ft 416 kts 269°
2026-04-26 20:53 41.51336 -92.02485 33981 ft 416 kts 269°
2026-04-26 20:54 41.51217 -92.10197 33978 ft 415 kts 269°
2026-04-26 20:54 41.51092 -92.17886 33972 ft 415 kts 268°
2026-04-26 20:55 41.50964 -92.25589 33970 ft 415 kts 268°
2026-04-26 20:55 41.50828 -92.33282 33963 ft 415 kts 268°
2026-04-26 20:56 41.50685 -92.40976 33961 ft 415 kts 268°
2026-04-26 20:56 41.50539 -92.48674 33966 ft 415 kts 268°
2026-04-26 20:57 41.50392 -92.56367 33959 ft 415 kts 268°
2026-04-26 20:57 41.50233 -92.64048 33964 ft 414 kts 268°
2026-04-26 20:58 41.50076 -92.71732 33962 ft 414 kts 268°
2026-04-26 20:58 41.49911 -92.79414 33962 ft 414 kts 268°
2026-04-26 20:59 41.49737 -92.87107 33950 ft 414 kts 268°
2026-04-26 20:59 41.49563 -92.94742 33946 ft 414 kts 268°
2026-04-26 21:00 41.49383 -93.02431 33943 ft 414 kts 268°
2026-04-26 21:00 41.49197 -93.10112 33937 ft 415 kts 267°
2026-04-26 21:01 41.49005 -93.17795 33937 ft 414 kts 267°
2026-04-26 21:01 41.48813 -93.25480 33931 ft 414 kts 267°
2026-04-26 21:02 41.48609 -93.33160 33926 ft 414 kts 267°
2026-04-26 21:02 41.48398 -93.40834 33925 ft 414 kts 267°
2026-04-26 21:03 41.48185 -93.48511 33929 ft 414 kts 267°
2026-04-26 21:03 41.47968 -93.56191 33927 ft 414 kts 267°
2026-04-26 21:04 41.47743 -93.63869 33929 ft 414 kts 266°
2026-04-26 21:04 41.47512 -93.71557 33931 ft 415 kts 266°
2026-04-26 21:05 41.47287 -93.79230 33931 ft 414 kts 266°
2026-04-26 21:05 41.47054 -93.86901 33932 ft 414 kts 266°
2026-04-26 21:06 41.46808 -93.94560 33930 ft 414 kts 266°
2026-04-26 21:06 41.46558 -94.02226 33927 ft 414 kts 266°
2026-04-26 21:07 41.46312 -94.09889 33921 ft 414 kts 266°
2026-04-26 21:07 41.46054 -94.17544 33920 ft 413 kts 266°
2026-04-26 21:08 41.45793 -94.25208 33908 ft 414 kts 266°
2026-04-26 21:08 41.45531 -94.32872 33897 ft 414 kts 266°
2026-04-26 21:09 41.45303 -94.39247 33894 ft 414 kts 266°
2026-04-26 21:09 41.45021 -94.46917 33885 ft 414 kts 265°
2026-04-26 21:10 41.44734 -94.54573 33881 ft 414 kts 266°
2026-04-26 21:10 41.44450 -94.62254 33879 ft 414 kts 265°
2026-04-26 21:11 41.44157 -94.69933 33879 ft 415 kts 265°
2026-04-26 21:11 41.43859 -94.77617 33883 ft 415 kts 265°
2026-04-26 21:12 41.43555 -94.85289 33873 ft 415 kts 265°
2026-04-26 21:12 41.43243 -94.92968 33872 ft 415 kts 265°
2026-04-26 21:13 41.42934 -95.00641 33866 ft 415 kts 265°
2026-04-26 21:13 41.42623 -95.08264 33860 ft 415 kts 265°
2026-04-26 21:14 41.42293 -95.15939 33859 ft 415 kts 265°
2026-04-26 21:14 41.41963 -95.23625 33858 ft 415 kts 265°
2026-04-26 21:15 41.41638 -95.31312 33858 ft 415 kts 265°
2026-04-26 21:15 41.41298 -95.39000 33857 ft 416 kts 265°
2026-04-26 21:16 41.40946 -95.46696 33857 ft 416 kts 265°
2026-04-26 21:16 41.40599 -95.54402 33855 ft 417 kts 265°
2026-04-26 21:17 41.40249 -95.62115 33850 ft 416 kts 265°
2026-04-26 21:17 41.39891 -95.69814 33847 ft 417 kts 265°
2026-04-26 21:18 41.39521 -95.77517 33844 ft 417 kts 264°
2026-04-26 21:18 41.39145 -95.85230 33844 ft 418 kts 264°
2026-04-26 21:19 41.38771 -95.92953 33845 ft 418 kts 264°
2026-04-26 21:19 41.38388 -96.00638 33849 ft 418 kts 264°
2026-04-26 21:20 41.37997 -96.08359 33851 ft 418 kts 264°
2026-04-26 21:20 41.37607 -96.16088 33854 ft 418 kts 264°
2026-04-26 21:21 41.37211 -96.23814 33859 ft 418 kts 264°
2026-04-26 21:21 41.36804 -96.31535 33859 ft 418 kts 264°
2026-04-26 21:22 41.36390 -96.39255 33859 ft 418 kts 264°
2026-04-26 21:22 41.35982 -96.46974 33860 ft 418 kts 264°
2026-04-26 21:23 41.35352 -96.58557 33863 ft 418 kts 264°
2026-04-26 21:23 41.34929 -96.66259 33862 ft 417 kts 263°
2026-04-26 21:24 41.34497 -96.73947 33856 ft 416 kts 263°
2026-04-26 21:24 41.34058 -96.81632 33854 ft 416 kts 263°
2026-04-26 21:25 41.33615 -96.89312 33853 ft 416 kts 263°
2026-04-26 21:25 41.33175 -96.96991 33853 ft 416 kts 263°
2026-04-26 21:26 41.32735 -97.04622 33853 ft 416 kts 263°
2026-04-26 21:26 41.32275 -97.12293 33849 ft 416 kts 263°
2026-04-26 21:27 41.31815 -97.19959 33845 ft 416 kts 263°
2026-04-26 21:27 41.31347 -97.27617 33845 ft 415 kts 263°
2026-04-26 21:28 41.30870 -97.35280 33845 ft 415 kts 263°
2026-04-26 21:28 41.30401 -97.42942 33844 ft 415 kts 262°
2026-04-26 21:29 41.29920 -97.50593 33844 ft 415 kts 262°
2026-04-26 21:29 41.29442 -97.58195 33845 ft 415 kts 262°
2026-04-26 21:30 41.28953 -97.65843 33842 ft 415 kts 262°
2026-04-26 21:30 41.28455 -97.73488 33841 ft 415 kts 262°
2026-04-26 21:31 41.27953 -97.81159 33845 ft 416 kts 262°
2026-04-26 21:31 41.27450 -97.88811 33843 ft 416 kts 262°
2026-04-26 21:32 41.26942 -97.96468 33842 ft 416 kts 262°
2026-04-26 21:32 41.26419 -98.04113 33840 ft 416 kts 262°
2026-04-26 21:33 41.25899 -98.11763 33843 ft 416 kts 262°
2026-04-26 21:33 41.25379 -98.19422 33848 ft 416 kts 262°
2026-04-26 21:34 41.24853 -98.27070 33852 ft 415 kts 262°
2026-04-26 21:34 41.24316 -98.34713 33853 ft 415 kts 262°
2026-04-26 21:35 41.23769 -98.42357 33852 ft 415 kts 261°
2026-04-26 21:35 41.23219 -98.49993 33852 ft 415 kts 261°
2026-04-26 21:36 41.22768 -98.56346 33851 ft 415 kts 261°
2026-04-26 21:36 41.22128 -98.65226 33852 ft 415 kts 261°
2026-04-26 21:37 41.21561 -98.72852 33852 ft 415 kts 261°
2026-04-26 21:37 41.20994 -98.80476 33850 ft 414 kts 261°
2026-04-26 21:38 41.20434 -98.88091 33850 ft 415 kts 261°
2026-04-26 21:38 41.19867 -98.95714 33849 ft 414 kts 261°
2026-04-26 21:39 41.19282 -99.03321 33849 ft 414 kts 261°
2026-04-26 21:39 41.18693 -99.10933 33843 ft 415 kts 261°
2026-04-26 21:40 41.18099 -99.18557 33841 ft 415 kts 261°
2026-04-26 21:40 41.17498 -99.26187 33841 ft 415 kts 261°
2026-04-26 21:41 41.16900 -99.33807 33841 ft 415 kts 261°
2026-04-26 21:41 41.16300 -99.41426 33839 ft 415 kts 261°
2026-04-26 21:42 41.15690 -99.49045 33837 ft 415 kts 261°
2026-04-26 21:42 41.15078 -99.56667 33835 ft 415 kts 261°
2026-04-26 21:43 41.14454 -99.64287 33833 ft 416 kts 261°
2026-04-26 21:43 41.13826 -99.71862 33835 ft 416 kts 261°
2026-04-26 21:44 41.13200 -99.79491 33832 ft 416 kts 261°
2026-04-26 21:44 41.12569 -99.87106 33825 ft 415 kts 261°
2026-04-26 21:45 41.11925 -99.94728 33824 ft 416 kts 261°
2026-04-26 21:45 41.11272 -100.02355 33825 ft 416 kts 261°
2026-04-26 21:46 41.10631 -100.09985 33824 ft 417 kts 261°
2026-04-26 21:46 41.09975 -100.17629 33827 ft 417 kts 261°
2026-04-26 21:47 41.09307 -100.25259 33838 ft 416 kts 261°
2026-04-26 21:47 41.08630 -100.32877 33839 ft 416 kts 261°
2026-04-26 21:48 41.07954 -100.40503 33836 ft 416 kts 261°
2026-04-26 21:48 41.07279 -100.48112 33844 ft 416 kts 261°
2026-04-26 21:49 41.06595 -100.55717 33848 ft 415 kts 261°
2026-04-26 21:49 41.05910 -100.63322 33850 ft 415 kts 260°
2026-04-26 21:50 41.05332 -100.69630 33850 ft 415 kts 260°
2026-04-26 21:50 41.04046 -100.78298 33850 ft 412 kts 251°
2026-04-26 21:51 41.02366 -100.85566 33854 ft 412 kts 251°
2026-04-26 21:51 41.00691 -100.92822 33851 ft 412 kts 251°
2026-04-26 21:52 40.99018 -101.00062 33844 ft 411 kts 251°
2026-04-26 21:52 40.97332 -101.07292 33843 ft 411 kts 251°
2026-04-26 21:53 40.95648 -101.14520 33839 ft 411 kts 251°
2026-04-26 21:53 40.94246 -101.20521 33834 ft 411 kts 251°
2026-04-26 21:54 40.92554 -101.27735 33825 ft 411 kts 251°
2026-04-26 21:54 40.90851 -101.34936 33821 ft 410 kts 251°
2026-04-26 21:55 40.89154 -101.42144 33818 ft 410 kts 251°
2026-04-26 21:55 40.87456 -101.49335 33817 ft 410 kts 251°
2026-04-26 21:56 40.85750 -101.56518 33816 ft 409 kts 251°
2026-04-26 21:56 40.84044 -101.63690 33812 ft 409 kts 251°
2026-04-26 21:57 40.82336 -101.70866 33809 ft 409 kts 251°
2026-04-26 21:57 40.80636 -101.77970 33808 ft 408 kts 251°
2026-04-26 21:58 40.78922 -101.85112 33808 ft 408 kts 251°
2026-04-26 21:58 40.77198 -101.92240 33807 ft 407 kts 251°
2026-04-26 21:59 40.75468 -101.99349 33805 ft 407 kts 251°
2026-04-26 21:59 40.73745 -102.06455 33806 ft 407 kts 251°
2026-04-26 22:00 40.72018 -102.13553 33802 ft 406 kts 251°
2026-04-26 22:00 40.70284 -102.20640 33798 ft 406 kts 251°
2026-04-26 22:01 40.68547 -102.27729 33795 ft 406 kts 251°
2026-04-26 22:01 40.66806 -102.34819 33795 ft 406 kts 251°
2026-04-26 22:02 40.65063 -102.41893 33795 ft 406 kts 250°
2026-04-26 22:02 40.63315 -102.48971 33790 ft 406 kts 250°
2026-04-26 22:03 40.61563 -102.56055 33785 ft 407 kts 250°
2026-04-26 22:03 40.59806 -102.63130 33784 ft 407 kts 250°
2026-04-26 22:04 40.58048 -102.70207 33782 ft 407 kts 250°
2026-04-26 22:04 40.56268 -102.77282 33783 ft 408 kts 250°
2026-04-26 22:05 40.54494 -102.84312 33785 ft 408 kts 250°
2026-04-26 22:05 40.52713 -102.91390 33787 ft 408 kts 250°
2026-04-26 22:06 40.50938 -102.98469 33785 ft 408 kts 250°
2026-04-26 22:06 40.49150 -103.05545 33790 ft 408 kts 250°
2026-04-26 22:07 40.47345 -103.12610 33795 ft 408 kts 250°
2026-04-26 22:07 40.45541 -103.19668 33797 ft 408 kts 250°
2026-04-26 22:08 40.43742 -103.26734 33799 ft 408 kts 250°
2026-04-26 22:08 40.41934 -103.33808 33800 ft 408 kts 249°
2026-04-26 22:09 40.40122 -103.40863 33801 ft 408 kts 249°
2026-04-26 22:09 40.38308 -103.47915 33799 ft 408 kts 249°
2026-04-26 22:10 40.36488 -103.54962 33795 ft 408 kts 249°
2026-04-26 22:10 40.34667 -103.61996 33787 ft 407 kts 249°
2026-04-26 22:11 40.32839 -103.69020 33760 ft 407 kts 249°
2026-04-26 22:11 40.31014 -103.76033 33763 ft 407 kts 249°
2026-04-26 22:12 40.29185 -103.83041 33756 ft 407 kts 249°
2026-04-26 22:12 40.27343 -103.90039 33752 ft 406 kts 249°
2026-04-26 22:13 40.25502 -103.97042 33752 ft 406 kts 249°
2026-04-26 22:13 40.23667 -104.04024 33754 ft 406 kts 249°
2026-04-26 22:14 40.21822 -104.11014 33751 ft 406 kts 249°
2026-04-26 22:14 40.19981 -104.17944 33751 ft 406 kts 249°
2026-04-26 22:15 40.18129 -104.24910 33753 ft 406 kts 249°
2026-04-26 22:15 40.16266 -104.31891 33752 ft 406 kts 249°
2026-04-26 22:16 40.14410 -104.38867 33760 ft 407 kts 249°
2026-04-26 22:16 40.13662 -104.41675 33759 ft 407 kts 249°
2026-04-26 22:17 40.11830 -104.48499 33753 ft 407 kts 248°
2026-04-26 22:17 40.09946 -104.55479 33744 ft 408 kts 248°
2026-04-26 22:18 40.08060 -104.62480 33742 ft 409 kts 248°
2026-04-26 22:18 40.06166 -104.69486 33743 ft 409 kts 248°
2026-04-26 22:19 40.04275 -104.76449 33736 ft 410 kts 248°
2026-04-26 22:19 40.02350 -104.83517 33732 ft 411 kts 248°
2026-04-26 22:20 40.00749 -104.89372 33729 ft 412 kts 248°
2026-04-26 22:20 39.98506 -104.97558 33736 ft 412 kts 249°
2026-04-26 22:21 39.96586 -105.04580 33751 ft 410 kts 248°
2026-04-26 22:21 39.94663 -105.11570 33764 ft 409 kts 248°
2026-04-26 22:22 39.92733 -105.18557 33772 ft 409 kts 248°
2026-04-26 22:22 39.90804 -105.25526 33767 ft 409 kts 248°
2026-04-26 22:23 39.88868 -105.32502 33754 ft 410 kts 248°
2026-04-26 22:23 39.86930 -105.39481 33752 ft 410 kts 248°
2026-04-26 22:24 39.84988 -105.46438 33767 ft 411 kts 248°
2026-04-26 22:24 39.83032 -105.53447 33796 ft 413 kts 248°
2026-04-26 22:25 39.81066 -105.60468 33819 ft 414 kts 248°
2026-04-26 22:25 39.79086 -105.67527 33844 ft 416 kts 248°
2026-04-26 22:26 39.77091 -105.74586 33860 ft 417 kts 248°
2026-04-26 22:26 39.75083 -105.81662 33866 ft 418 kts 248°
2026-04-26 22:27 39.73069 -105.88748 33871 ft 418 kts 248°
2026-04-26 22:27 39.71063 -105.95840 33877 ft 418 kts 248°
2026-04-26 22:28 39.69053 -106.02929 33877 ft 418 kts 248°
2026-04-26 22:28 39.67022 -106.10015 33873 ft 419 kts 248°
2026-04-26 22:29 39.64994 -106.17093 33874 ft 418 kts 248°
2026-04-26 22:29 39.62962 -106.24177 33876 ft 418 kts 248°
2026-04-26 22:30 39.60927 -106.31232 33871 ft 417 kts 248°
2026-04-26 22:30 39.58888 -106.38276 33872 ft 417 kts 248°
2026-04-26 22:31 39.56850 -106.45314 33862 ft 416 kts 248°
2026-04-26 22:31 39.54814 -106.52330 33855 ft 415 kts 248°
2026-04-26 22:32 39.52772 -106.59333 33851 ft 414 kts 248°
2026-04-26 22:32 39.50753 -106.66271 33855 ft 414 kts 248°
2026-04-26 22:33 39.47692 -106.76720 33842 ft 412 kts 248°
2026-04-26 22:34 39.45652 -106.83648 33838 ft 411 kts 248°
2026-04-26 22:34 39.43596 -106.90533 33835 ft 411 kts 246°
2026-04-26 22:35 39.41301 -106.97303 33841 ft 410 kts 244°
2026-04-26 22:35 39.38887 -107.03971 33843 ft 409 kts 244°
2026-04-26 22:36 39.36491 -107.10644 33843 ft 409 kts 244°
2026-04-26 22:36 39.34135 -107.17351 33852 ft 410 kts 244°
2026-04-26 22:37 39.31789 -107.24044 33861 ft 409 kts 244°
2026-04-26 22:37 39.29428 -107.30725 33861 ft 409 kts 244°
2026-04-26 22:38 39.27061 -107.37403 33866 ft 409 kts 244°
2026-04-26 22:38 39.25097 -107.42947 33867 ft 409 kts 244°
2026-04-26 22:39 39.22728 -107.49616 33860 ft 408 kts 244°
2026-04-26 22:39 39.20355 -107.56276 33854 ft 409 kts 244°
2026-04-26 22:40 39.17969 -107.62937 33849 ft 409 kts 244°
2026-04-26 22:40 39.15583 -107.69585 33842 ft 409 kts 244°
2026-04-26 22:41 39.13202 -107.76238 33840 ft 409 kts 244°
2026-04-26 22:41 39.10824 -107.82867 33799 ft 407 kts 244°
2026-04-26 22:42 39.08445 -107.89474 33802 ft 407 kts 244°
2026-04-26 22:42 39.06047 -107.96100 33802 ft 407 kts 244°
2026-04-26 22:43 39.03654 -108.02696 33806 ft 407 kts 244°
2026-04-26 22:43 39.01256 -108.09295 33804 ft 408 kts 244°
2026-04-26 22:44 38.98850 -108.15894 33811 ft 408 kts 244°
2026-04-26 22:44 38.96446 -108.22489 33817 ft 407 kts 244°
2026-04-26 22:45 38.94043 -108.29074 33814 ft 407 kts 244°
2026-04-26 22:45 38.91639 -108.35632 33800 ft 403 kts 244°
2026-04-26 22:46 38.89244 -108.42164 33791 ft 405 kts 244°
2026-04-26 22:46 38.86839 -108.48699 33795 ft 405 kts 244°
2026-04-26 22:47 38.84443 -108.55198 33798 ft 405 kts 244°
2026-04-26 22:47 38.82038 -108.61735 33801 ft 405 kts 244°
2026-04-26 22:48 38.79621 -108.68274 33804 ft 406 kts 244°
2026-04-26 22:48 38.77190 -108.74803 33810 ft 406 kts 244°
2026-04-26 22:49 38.74758 -108.81326 33816 ft 406 kts 244°
2026-04-26 22:49 38.72327 -108.87851 33821 ft 406 kts 244°
2026-04-26 22:50 38.69888 -108.94387 33821 ft 407 kts 243°
2026-04-26 22:50 38.67442 -109.00922 33821 ft 407 kts 243°
2026-04-26 22:51 38.64994 -109.07454 33828 ft 407 kts 243°
2026-04-26 22:51 38.62533 -109.13983 33824 ft 407 kts 243°
2026-04-26 22:52 38.60076 -109.20516 33821 ft 407 kts 243°
2026-04-26 22:52 38.57619 -109.27049 33814 ft 408 kts 243°
2026-04-26 22:53 38.55152 -109.33575 33814 ft 408 kts 243°
2026-04-26 22:53 38.52673 -109.40108 33818 ft 409 kts 243°
2026-04-26 22:54 38.50197 -109.46634 33815 ft 408 kts 243°
2026-04-26 22:54 38.47721 -109.53149 33812 ft 408 kts 243°
2026-04-26 22:55 38.45235 -109.59650 33804 ft 407 kts 243°
2026-04-26 22:55 38.42749 -109.66141 33806 ft 407 kts 243°
2026-04-26 22:56 38.40270 -109.72635 33808 ft 407 kts 243°
2026-04-26 22:56 38.37778 -109.79114 33808 ft 407 kts 243°
2026-04-26 22:57 38.35281 -109.85601 33810 ft 407 kts 243°
2026-04-26 22:57 38.32808 -109.92021 33810 ft 407 kts 242°
2026-04-26 22:58 38.30308 -109.98489 33810 ft 406 kts 242°
2026-04-26 22:58 38.27802 -110.04934 33805 ft 406 kts 242°
2026-04-26 22:59 38.25186 -110.11311 33800 ft 406 kts 241°
2026-04-26 22:59 38.22512 -110.17640 33797 ft 406 kts 240°
2026-04-26 23:00 38.19845 -110.23989 33795 ft 407 kts 241°
2026-04-26 23:00 38.17212 -110.30303 33800 ft 407 kts 241°
2026-04-26 23:01 38.14560 -110.36669 33800 ft 408 kts 241°
2026-04-26 23:01 38.11901 -110.43029 33797 ft 408 kts 241°
2026-04-26 23:02 38.09229 -110.49392 33785 ft 408 kts 241°
2026-04-26 23:02 38.06559 -110.55746 33788 ft 408 kts 241°
2026-04-26 23:03 38.03873 -110.62107 33783 ft 409 kts 241°
2026-04-26 23:03 38.01193 -110.68475 33780 ft 409 kts 241°
2026-04-26 23:04 37.98502 -110.74852 33785 ft 410 kts 241°
2026-04-26 23:04 37.95811 -110.81197 33819 ft 407 kts 241°
2026-04-26 23:05 37.93143 -110.87491 33822 ft 404 kts 241°
2026-04-26 23:05 37.90479 -110.93751 33817 ft 403 kts 241°
2026-04-26 23:06 37.87815 -110.99990 33812 ft 402 kts 242°
2026-04-26 23:06 37.85158 -111.06211 33808 ft 402 kts 241°
2026-04-26 23:07 37.82493 -111.12444 33812 ft 402 kts 242°
2026-04-26 23:07 37.79841 -111.18630 33810 ft 403 kts 242°
2026-04-26 23:08 37.77168 -111.24853 33807 ft 403 kts 242°
2026-04-26 23:08 37.74486 -111.31083 33809 ft 404 kts 242°
2026-04-26 23:09 37.71794 -111.37326 33815 ft 405 kts 242°
2026-04-26 23:09 37.69096 -111.43574 33826 ft 406 kts 242°
2026-04-26 23:10 37.66390 -111.49831 33832 ft 407 kts 242°
2026-04-26 23:10 37.63650 -111.56148 33845 ft 408 kts 242°
2026-04-26 23:11 37.60942 -111.62375 33854 ft 408 kts 242°
2026-04-26 23:11 37.58203 -111.68655 33861 ft 409 kts 242°
2026-04-26 23:12 37.55463 -111.74936 33875 ft 409 kts 242°
2026-04-26 23:12 37.52712 -111.81230 33885 ft 410 kts 242°
2026-04-26 23:13 37.49904 -111.87477 33892 ft 410 kts 236°
2026-04-26 23:13 37.46527 -111.93267 33904 ft 410 kts 235°
2026-04-26 23:14 37.43143 -111.99051 33910 ft 410 kts 235°
2026-04-26 23:14 37.39759 -112.04821 33911 ft 410 kts 235°
2026-04-26 23:15 37.36375 -112.10581 33911 ft 410 kts 235°
2026-04-26 23:15 37.32995 -112.16350 33911 ft 409 kts 236°
2026-04-26 23:16 37.29618 -112.22109 33915 ft 408 kts 235°
2026-04-26 23:16 37.26248 -112.27849 33918 ft 407 kts 235°
2026-04-26 23:17 37.22884 -112.33553 33923 ft 406 kts 235°
2026-04-26 23:17 37.19530 -112.39243 33926 ft 405 kts 235°
2026-04-26 23:18 37.16182 -112.44908 33926 ft 403 kts 235°
2026-04-26 23:18 37.12842 -112.50545 33929 ft 402 kts 235°
2026-04-26 23:19 37.09513 -112.56164 33934 ft 401 kts 235°
2026-04-26 23:19 37.06186 -112.61755 33933 ft 400 kts 235°
2026-04-26 23:20 37.02865 -112.67345 33951 ft 399 kts 235°
2026-04-26 23:20 36.99554 -112.72915 33948 ft 399 kts 235°
2026-04-26 23:21 36.96263 -112.78426 33949 ft 397 kts 235°
2026-04-26 23:21 36.92954 -112.83970 33954 ft 397 kts 235°
2026-04-26 23:22 36.90206 -112.88557 33952 ft 397 kts 235°
2026-04-26 23:22 36.86907 -112.94074 33956 ft 396 kts 235°
2026-04-26 23:23 36.83605 -112.99586 33952 ft 396 kts 235°
2026-04-26 23:23 36.80301 -113.05094 33955 ft 396 kts 235°
2026-04-26 23:24 36.76995 -113.10580 33958 ft 396 kts 235°
2026-04-26 23:24 36.73690 -113.16065 33946 ft 396 kts 235°
2026-04-26 23:25 36.70384 -113.21546 33936 ft 395 kts 235°
2026-04-26 23:25 36.67070 -113.27017 33944 ft 396 kts 234°
2026-04-26 23:26 36.63740 -113.32491 33935 ft 396 kts 234°
2026-04-26 23:26 36.60458 -113.37995 33933 ft 395 kts 236°
2026-04-26 23:27 36.57313 -113.43603 33930 ft 395 kts 237°
2026-04-26 23:27 36.54183 -113.49222 33934 ft 395 kts 237°
2026-04-26 23:28 36.51042 -113.54773 33931 ft 395 kts 236°
2026-04-26 23:28 36.47856 -113.60344 33920 ft 395 kts 236°
2026-04-26 23:29 36.44674 -113.65890 33917 ft 394 kts 236°
2026-04-26 23:29 36.41495 -113.71453 33913 ft 394 kts 236°
2026-04-26 23:30 36.38327 -113.76997 33913 ft 394 kts 236°
2026-04-26 23:30 36.35154 -113.82542 33912 ft 394 kts 236°
2026-04-26 23:31 36.31970 -113.88075 33908 ft 394 kts 236°
2026-04-26 23:31 36.28788 -113.93594 33900 ft 393 kts 236°
2026-04-26 23:32 36.25604 -113.99113 33891 ft 393 kts 236°
2026-04-26 23:32 36.22445 -114.04591 33892 ft 393 kts 236°
2026-04-26 23:33 36.19260 -114.10104 33884 ft 394 kts 236°
2026-04-26 23:33 36.16070 -114.15620 33871 ft 394 kts 236°
2026-04-26 23:34 36.12876 -114.21133 33870 ft 394 kts 236°
2026-04-26 23:34 36.09677 -114.26642 33868 ft 394 kts 236°
2026-04-26 23:35 36.06182 -114.31877 33862 ft 395 kts 231°
2026-04-26 23:35 36.02524 -114.36955 33856 ft 396 kts 231°
2026-04-26 23:36 35.98863 -114.42027 33852 ft 396 kts 230°
2026-04-26 23:36 35.95189 -114.47095 33859 ft 395 kts 231°
2026-04-26 23:37 35.91522 -114.52146 33865 ft 395 kts 231°
2026-04-26 23:37 35.87861 -114.57198 33868 ft 395 kts 231°
2026-04-26 23:38 35.84198 -114.62251 33868 ft 395 kts 231°
2026-04-26 23:38 35.80563 -114.67253 33865 ft 394 kts 231°
2026-04-26 23:39 35.76905 -114.72276 33860 ft 393 kts 231°
2026-04-26 23:39 35.73248 -114.77291 33855 ft 393 kts 231°
2026-04-26 23:40 35.69591 -114.82296 33852 ft 393 kts 231°
2026-04-26 23:40 35.65925 -114.87298 33852 ft 394 kts 231°
2026-04-26 23:41 35.62258 -114.92302 33855 ft 394 kts 231°
2026-04-26 23:41 35.58595 -114.97327 33855 ft 395 kts 231°
2026-04-26 23:42 35.54927 -115.02340 33857 ft 395 kts 231°
2026-04-26 23:42 35.50995 -115.07065 33858 ft 401 kts 218°
2026-04-26 23:42 35.48514 -115.08688 33857 ft 409 kts 207°
2026-04-26 23:43 35.43001 -115.10699 33859 ft 414 kts 202°
2026-04-26 23:43 35.37490 -115.12605 33860 ft 414 kts 202°
2026-04-26 23:44 35.31940 -115.14537 33867 ft 414 kts 203°
2026-04-26 23:44 35.26400 -115.16458 33874 ft 414 kts 203°
2026-04-26 23:45 35.20854 -115.18369 33876 ft 413 kts 203°
2026-04-26 23:45 35.15326 -115.20277 33879 ft 413 kts 203°
2026-04-26 23:46 35.09806 -115.22184 33879 ft 412 kts 203°
2026-04-26 23:46 35.04294 -115.24084 33882 ft 412 kts 203°
2026-04-26 23:47 34.98780 -115.25985 33884 ft 411 kts 203°
2026-04-26 23:47 34.93281 -115.27877 33888 ft 410 kts 203°
2026-04-26 23:48 34.87785 -115.29760 33890 ft 410 kts 204°
2026-04-26 23:48 34.82306 -115.31631 33893 ft 409 kts 204°
2026-04-26 23:49 34.76843 -115.33540 33756 ft 406 kts 205°